Location: Bailleul
(50.3375°N, 2.8513°E)
Time: 04:27:03
(UTC+00:00)

Cosmos 2344 - Pass Details

Date: 19 April 2021
Orbit: 1241 x 3002 km, 63.3° (Epoch: 09 May)

Event Time Altitude Azimuth Distance (km) Brightness Sun altitude
Rises 20:26:43 0° 220° (SW) 4,258 6.4 -14.3°
Reaches altitude 10° 20:29:29 10° 221° (SW) 3,232 5.7 -14.6°
Maximum altitude 20:36:55 89° 131° (SE) 1,268 3.5 -15.5°
Drops below altitude 10° 20:45:04 10° 44° (NE) 3,525 5.9 -16.5°
Sets 20:48:13 0° 45° (NE) 4,670 6.5 -16.9°
